Regional Weather Roundup
Issued by NWS

Home | Current Version | Previous Version | Graphics & Text | Print | Product List | Glossary On
Versions: 1 2 3 4 5 6 7 8 9 10 11 12 13 14 15 16 17 18 19 20 21 22 23 24 25 26 27 28 29 30 31 32 33 34 35 36 37 38 39 40 41 42 43 44 45 46 47 48 49 50
000
ASUS45 KPSR 171400
RWRAZ

PRELIMINARY ARIZONA REGIONAL HOURLY WEATHER ROUNDUP
NATIONAL WEATHER SERVICE PHOENIX AZ
700 AM MST WED DEC 17 2014

NOTE: FAIR INDICATES FEW OR NO CLOUDS BELOW 12,000 FEET WITH NO
SIGNIFICANT WEATHER AND/OR OBSTRUCTIONS TO VISIBILITY.

AZZ001>003-036-171500-
NORTHWEST ARIZONA

CITY           SKY/WX    TMP DP  RH WIND       PRES   REMARKS
KINGMAN        MOCLDY    38  35  89 SW5       30.00R WCI  34
$$

AZZ004>008-015-016-018-171500-
NORTH CENTRAL ARIZONA

CITY           SKY/WX    TMP DP  RH WIND       PRES   REMARKS
GRAND CANYON   LGT SNOW  30  29  96 CALM      29.99R FOG
PRESCOTT       CLOUDY    38  32  79 SE5       30.00R WCI  34
FLAGSTAFF      NOT AVBL
PAYSON         LGT RAIN  34  34 100 CALM      30.03R
PAGE           CLOUDY    39  31  72 CALM      29.98R
$$

AZZ009>014-017-171500-
NORTHEAST ARIZONA

CITY           SKY/WX    TMP DP  RH WIND       PRES   REMARKS
WINSLOW        NOT AVBL
SAINT JOHNS    CLOUDY    36  35  96 NE5       29.99R WCI  32
WINDOW ROCK    LGT SNOW  32  28  85 CALM      30.00R VSB 1
SHOW LOW       LGT SNOW  32  28  86 S7        30.02S WCI  26
$$

AZZ023-171500-
GREATER PHOENIX AREA

CITY           SKY/WX    TMP DP  RH WIND       PRES   REMARKS
PHOENIX        CLOUDY    52  48  86 SE5       30.02R
GLENDALE       MOCLDY    52  52 100 CALM      30.04R
LUKE AFB       CLOUDY    52 N/A N/A SW2       30.02R
DEER VALLEY    CLOUDY    49  46  90 E6        30.02R
SCOTTSDALE     CLOUDY    49  46  90 SW3       30.04R
MESA-GATEWAY   CLOUDY    48  48 100 CALM      30.05R
CHANDLER       CLOUDY    52  50  93 MISG      30.04R
$$

AZZ027-028-171500-
SOUTHWEST MARICOPA COUNTY AND PINAL COUNTY

CITY           SKY/WX    TMP DP  RH WIND       PRES   REMARKS
CASA GRANDE    CLOUDY    50  46  87 CALM      30.04R
GILA BEND      FAIR      47  45  93 S3        30.05R
$$

AZZ503-504-507>509-171500-
SOUTHEAST ARIZONA

CITY           SKY/WX    TMP DP  RH WIND       PRES   REMARKS
TUCSON         LGT RAIN  47  43  86 SE7       30.07R
DAVIS-MONTHAN  DRIZZLE   46  44  94 E6        30.05S
RYAN FIELD       N/A     52  46  82 SE5       30.07R
NOGALES        LGT RAIN  44  39  82 SE8       30.09R
SIERRA VISTA   MOCLDY    45  36  70 S13G20    30.07R
SAFFORD        CLOUDY    44  39  82 SE5       30.02R
$$

AZZ020-021-025-026-031-171500-
SOUTHWEST ARIZONA

CITY           SKY/WX    TMP DP  RH WIND       PRES   REMARKS
YUMA           CLOUDY   N/A N/A N/A E3        30.02S
$$

CAZ031-033-041-043-047-048-061-171500-
SOUTHERN CALIFORNIA

CITY           SKY/WX    TMP DP  RH WIND       PRES   REMARKS
DOWNTOWN L.A.  CLOUDY    54  49  83 CALM      29.97R
L.A. AIRPORT   PTCLDY    53  49  86 VRB5      29.97R
SAN DIEGO      HVY RAIN  57  52  83 W9        30.04R FOG
BURBANK        CLOUDY    52  50  93 CALM      29.97R
ONTARIO        CLOUDY    51  45  79 SW5       29.97F
RIVERSIDE      MOCLDY    50  47  89 SE3       29.98S
PALM SPRINGS   CLOUDY    51  48  89 CALM      30.02R
EL CENTRO NAS  FOG       46  46 100 CALM      30.00R VSB 1/2
IMPERIAL       PTCLDY    49  47  93 NE3       30.00R
BLYTHE         MOCLDY    50  49  96 CALM      30.01R
$$

NVZ020-UTZ003-171500-
SOUTHERN NEVADA-UTAH

CITY           SKY/WX    TMP DP  RH WIND       PRES   REMARKS
LAS VEGAS      NOT AVBL
SALT LAKE CITY MOCLDY    31  28  89 CALM      29.99R
$$

NMZ009-TXZ055-171500-
NEW MEXICO-WEST TEXAS

CITY           SKY/WX    TMP DP  RH WIND       PRES   REMARKS
ALBUQUERQUE    LGT RAIN  33  32  96 SE8       30.04S WCI  26
EL PASO        PTCLDY    37  26  64 SE9       30.04R WCI  30
$$


........................KEY........................
SKY/WX - SKY CONDITION/WEATHER
TMP    - TEMPERATURE IN FAHRENHEIT
DP     - DEW POINT IN FAHRENHEIT
RH     - RELATIVE HUMIDITY IN PERCENT
WIND   - DIRECTION AND SPEED IN MILES PER HOUR (MPH)
VRB    - VARIABLE WIND DIRECTION
PRES   - MEAN SEA LEVEL PRESSURE IN INCHES OF MERCURY
         F - FALLING PRESSURE   R - RISING PRESSURE
         S - STEADY PRESSURE
VSB    - VISIBILITY IN MILES
HX     - HEAT INDEX IN FAHRENHEIT
WCI    - WIND CHILL INDEX IN FAHRENHEIT
TC     - TEMPERATURE IN CELSIUS WHICH IS ALSO KNOWN AS
         TEMPERATURE IN CENTIGRADE
AFB    - AIR FORCE BASE
         LUKE AFB IS LUKE AIR FORCE BASE
         DAVIS-MONTHAN IS DAVIS-MONTHAN AIR FORCE BASE
NAS    - NAVAL AIR STATION
         EL CENTRO NAS IS EL CENTRO NAVAL AIR STATION
N/A    - NOT AVAILABLE



USA.gov is the U.S. government's official web portal to all federal, state and local government web resources and services.